Join Today

Capital City Aviation is creating Tomorrows Pilots Today!

Come and experience the Freeedom of Flight!

Join Today
Checkout the National Weather Services “NEW” Aviation Weather website. Let us know what you think!Learn More
One of the webs greatest supplemental resources for students, pilots and aviation enthusiasts.Learn More
SkyVector has grown in popularity to become the number one internet destination for aeronautical charts and publications!Learn More
Welcome to CSC Duats! Where we have been serving pilots since 1989. File your IFR / VFR flight plan today!Learn More
To provide aviation students and members with the highest quality instruction and rental aircraft in the central Ohio region. 

We employ the best of the best that Central Ohio has to offer. With total team experience exceeding 50 years we have what it takes to not only train at a level that exceeds most clubs but that are comparable to many of the top tier schools within the country.
To share the joy of that  which we love most…FLYING!!
To provide our students and members with a safe positive flying experience all at an excellent value .

    Current METAR for KOSU
    KOSU 241653Z 23024G38KT 7SM -RA BKN055 OVC070 13/09 A2939 RMK AO2 PK WND 22053/1622 RAB29 SLP950 P0002 T01280094 $
    Current METAR for KCMH
    KCMH 241651Z 25024G44KT 6SM -RA FEW037 BKN046 OVC060 14/08 A2940 RMK AO2 PK WND 22044/1642 RAB33 PRESRR SLP952 P0000 T01440083 $
    Current METAR for KTZR
    KTZR 241650Z 23025G40KT 7SM -RA SCT018 BKN035 12/11 A2942 RMK RAB25
    Current METAR for KLCK
    KLCK 241715Z AUTO 25025G32KT 10SM SCT033 BKN041 OVC046 16/09 A2942 RMK AO2 T01570093
Note: This calculator is provided as a convenience only. Should you be planning a trip by air you should always use official sectional charts and other prudent and official sources of information on which to base your flight planning and go/no-go decisions.

Central Ohio’s Ultimate Aviation Club House

While we pride ourselves in the level of professionalism and sincerity that we approach our training with, we also place a major emphasis on making training fun. Aviation is serious business but it should always be enjoyable. We foster a relaxed atmosphere that promotes learning instead of causing intimidation or anxiety. The aviation community is very tight-knit and at Capital City Aviation we like to think of our customers and employees as a small family within that community. Our club house offers a lounge, student work areas, briefing rooms and work stations. We also provide FREE Wifi in order for our members to get up-to-date information for all their flying needs.

Capital City Aviation is located above Hanger 2 at the Ohio State University Airport

2160 West Case Road,
Columbus, OH 43235
Phone: (614) 459-2541
Web: www.capitalcityaviation.com

CCA Directions